COSMOS 1459

导读

**COSMOS 1459**是独联体(CIS)于**1983年5月6日**发射的一颗卫星,隶属于苏联/俄罗斯“宇宙”系列卫星。该系列多承担军事侦察、技术试验或航天测绘任务,具体任务细节因保密未曾公开。作为冷战时期苏联航天计划的组成部分,它验证了航天技术、拓展了近地轨道应用,推动了当时航天技术发展,是独联体早期航天活动的典型产物。

Basic Information
目录编号:
14057
目录名称:
COSMOS 1459
国际标识:
1983-042A
轨道中心:
EARTH
卫星名称:
COSMOS 1459
卫星全名:
--
卫星状态:
在轨 (已飞行15838 天)
发射日期:
1983-05-06 UTC
国别 :
俄罗斯(独联体) (CIS)
星等 :
--
This satellite is enrolled in the Space Conjunction Data Service (SCDS) and the current flight risk assessment level is: No High Risk
Orbit Information
数据来源 国际轨道数据 AOE轨道数据
星历时间 2026-09-15T07:32:20+0800
23小时前
查看轨道信息
2026-09-15T22:00:00+0800
8小时前
查看轨道信息
半长轴 7353.291km 7353.286km
偏心率 0.0048042 0.0048098
轨道倾角 82.970° 82.969°
近地点辐角 289.141° 289.814°
升交点赤经 113.388° 112.942°
平近点角 70.455° 174.708°
近地点 939.827km 939.781km
远地点 1010.481km 1010.517km
周期 104.588分钟 104.588分钟
每日圈数 13.768296 13.768309
Detailed Information
使用方式:
暂无
2D Orbit Map
3D Orbit Map
Orbit Altitude Analysis Chart
Orbit Inclination Analysis Chart
Orbit Comprehensive Analysis Chart
View Comprehensive Chart
Conjunction Data List
Event ID Objects TCA Miss Dist (km) Collision Risk Probability Collision Risk Index (CRI) Action
CDM_260917-211201-405706-558321
2026-09-17T
21:12:01+0000
2.853 km
极远距离
1.41536E-6 低风险 0.38
Miss Distance Evolution Trend with All Objects Subscribe to Flight Safety Assessment
Collision Probability Evolution Trend with All Objects Subscribe to Flight Safety Assessment